EW4337 Weather Reports


Display with metric or nautical units.
time (UTC)temp
F
wind
direction
speed
MPH
gust
MPH
rain 1hr
in
rain 24hr
in
rain mn
in
humidity
%
barometer
mb
20260831123204 63 204 6.0 12.0 0.01 0.61 0.61 92 1006.5
20260831122703 63 219 5.0 12.0 0.02 0.61 0.61 93 1006.5
20260831122203 63 211 3.0 9.0 0.02 0.61 0.61 94 1006.3
20260831121204 61 172 3.0 9.0 0.04 0.61 0.61 95 1006.2
20260831120704 61 173 3.0 8.0 0.09 0.61 0.61 96 1006.2
20260831120203 59 219 2.0 6.0 0.09 0.61 0.61 95 1006.4
20260831115704 59 205 3.0 8.0 0.10 0.61 0.61 94 1006.7
20260831114704 59 221 4.0 10.0 0.35 0.61 0.61 93 1006.7
20260831113703 59 213 3.0 10.0 0.43 0.61 0.61 93 1006.6
20260831113204 59 238 8.0 17.0 0.48 0.60 0.60 93 1006.5
20260831112704 59 256 6.0 14.0 0.47 0.58 0.58 93 1006.7
20260831112204 60 248 7.0 17.0 0.51 0.58 0.58 93 1006.7
20260831111704 60 239 8.0 16.0 0.52 0.58 0.58 93 1006.6
20260831111204 60 258 7.0 17.0 0.56 0.57 0.57 93 1006.4
20260831110704 60 244 5.0 9.0 0.51 0.52 0.52 93 1006.2
20260831105704 60 276 6.0 12.0 0.50 0.50 0.50 91 1006.0
20260831105205 60 254 5.0 8.0 0.34 0.35 0.35 91 1005.9
20260831104704 61 240 5.0 12.0 0.24 0.25 0.25 90 1006.1
20260831104204 61 263 5.0 13.0 0.20 0.20 0.20 89 1006.0
20260831103704 62 253 9.0 20.0 0.17 0.17 0.17 88 1006.2
20260831103204 63 243 12.0 18.0 0.11 0.12 0.12 88 1006.3
20260831102704 64 260 10.0 20.0 0.10 0.11 0.11 88 1006.6
20260831102204 65 186 4.0 13.0 0.06 0.07 0.07 85 1005.9
20260831101204 67 185 7.0 17.0 0.00 0.02 0.01 80 1005.8
20260831100704 68 196 3.0 15.0 0.00 0.02 0.01 79 1005.7
20260831100204 68 221 6.0 12.0 0.00 0.02 0.01 79 1005.7
20260831095204 68 237 10.0 20.0 0.00 0.02 0.01 79 1005.9
20260831094704 67 219 9.0 13.0 0.00 0.02 0.01 82 1006.0
20260831094202 67 237 6.0 16.0 0.00 0.02 0.01 83 1006.0
20260831093202 67 193 6.0 12.0 0.00 0.02 0.01 81 1006.1
20260831092702 68 217 9.0 18.0 0.00 0.02 0.01 80 1006.1
20260831092203 68 215 5.0 16.0 0.00 0.02 0.01 81 1006.1
20260831091203 68 171 10.0 21.0 0.00 0.02 0.01 82 1006.0
20260831090703 67 212 6.0 20.0 0.00 0.02 0.01 83 1006.0
20260831085702 67 187 7.0 18.0 0.00 0.02 0.01 83 1006.0
20260831085203 67 172 6.0 16.0 0.00 0.02 0.01 85 1005.9
20260831084702 66 209 10.0 20.0 0.00 0.02 0.01 87 1005.8
20260831084203 66 186 6.0 14.0 0.00 0.02 0.01 88 1005.7
20260831083703 65 190 9.0 24.0 0.00 0.02 0.01 88 1005.7
20260831083203 65 187 5.0 12.0 0.00 0.02 0.01 89 1005.6
20260831082702 65 232 7.0 15.0 0.00 0.02 0.01 88 1005.6
20260831082202 65 168 3.0 10.0 0.00 0.02 0.01 88 1005.5
20260831081702 65 251 6.0 13.0 0.00 0.02 0.01 88 1005.6
20260831081202 65 193 6.0 16.0 0.00 0.02 0.01 88 1005.6
20260831080703 66 207 5.0 13.0 0.00 0.02 0.01 88 1005.7
20260831075704 66 193 5.0 12.0 0.00 0.02 0.01 89 1005.7
20260831075203 65 215 5.0 12.0 0.00 0.02 0.01 89 1005.7
20260831074702 65 211 7.0 16.0 0.00 0.02 0.01 90 1005.8
20260831074203 65 220 5.0 12.0 0.00 0.02 0.01 91 1005.9
20260831073703 64 208 5.0 16.0 0.00 0.02 0.01 91 1006.0
20260831073202 64 220 6.0 14.0 0.00 0.02 0.01 92 1005.9
20260831072203 64 207 6.0 17.0 0.00 0.02 0.01 93 1006.1
20260831070702 63 204 6.0 15.0 0.00 0.02 0.01 94 1006.2
20260831070203 63 206 4.0 12.0 0.00 0.02 0.01 94 1006.2
20260831065702 63 189 4.0 10.0 0.00 0.02 0.01 95 1006.2
20260831065203 63 230 6.0 12.0 0.00 0.02 0.01 95 1006.1
20260831064703 62 185 5.0 15.0 0.00 0.02 0.01 95 1006.1
20260831064203 62 183 3.0 12.0 0.00 0.02 0.01 95 1005.9
20260831063203 62 191 4.0 12.0 0.00 0.02 0.01 96 1005.9
20260831062702 62 172 6.0 10.0 0.00 0.02 0.01 96 1005.9
20260831062203 61 171 5.0 8.0 0.00 0.02 0.01 96 1005.8
20260831061703 61 211 3.0 8.0 0.00 0.02 0.01 96 1005.8
20260831060703 61 174 3.0 8.0 0.00 0.02 0.01 96 1005.8
20260831060203 61 175 3.0 7.0 0.00 0.02 0.01 96 1005.8
20260831055703 61 179 5.0 12.0 0.00 0.02 0.01 96 1005.8
20260831054203 61 159 3.0 9.0 0.00 0.02 0.01 96 1005.6
20260831053703 61 134 5.0 12.0 0.00 0.02 0.01 96 1005.6
20260831053203 60 175 5.0 10.0 0.00 0.02 0.01 96 1005.6
20260831052703 60 166 2.0 7.0 0.00 0.02 0.01 96 1005.8
20260831052203 60 166 3.0 7.0 0.00 0.02 0.01 96 1005.8
20260831051703 60 164 3.0 6.0 0.00 0.02 0.01 96 1005.8
20260831051203 60 159 3.0 6.0 0.00 0.02 0.01 96 1005.8
20260831050703 60 169 3.0 9.0 0.00 0.02 0.01 96 1005.8
20260831050204 60 157 1.0 5.0 0.00 0.02 0.01 96 1005.8
20260831045203 60 150 3.0 6.0 0.01 0.02 0.01 95 1006.0
20260831044704 60 164 1.0 3.0 0.01 0.02 0.01 95 1006.0
20260831044204 60 180 2.0 6.0 0.01 0.02 0.01 95 1006.0
20260831043203 60 167 3.0 6.0 0.01 0.02 0.01 95 1005.9
20260831042703 60 180 3.0 6.0 0.01 0.02 0.01 95 1005.8
20260831042204 60 169 3.0 6.0 0.01 0.02 0.01 95 1005.8
20260831041204 60 168 3.0 6.0 0.01 0.02 0.01 95 1005.9
20260831040703 60 163 2.0 3.0 0.01 0.02 0.01 95 1005.9
20260831040203 60 170 1.0 3.0 0.01 0.02 0.01 95 1005.9
20260831035703 60 185 1.0 5.0 0.00 0.02 0.00 95 1005.9
20260831035203 60 170 2.0 5.0 0.00 0.02 0.00 95 1005.8
20260831034703 60 173 1.0 3.0 0.00 0.02 0.00 95 1005.9
20260831034204 60 175 1.0 3.0 0.00 0.02 0.00 95 1005.9
20260831033203 61 207 1.0 3.0 0.00 0.02 0.00 95 1006.0
20260831032703 61 183 2.0 3.0 0.00 0.02 0.00 95 1006.0
20260831032204 61 198 2.0 7.0 0.00 0.02 0.00 95 1006.0
20260831031204 61 193 2.0 6.0 0.00 0.02 0.00 95 1006.2
20260831030703 61 189 3.0 8.0 0.00 0.02 0.00 95 1006.2
20260831030204 61 178 4.0 8.0 0.00 0.02 0.00 95 1006.2
20260831025704 61 178 3.0 7.0 0.00 0.02 0.00 95 1006.2
20260831025204 61 191 3.0 6.0 0.00 0.02 0.00 95 1006.3
20260831024703 62 184 2.0 8.0 0.00 0.02 0.00 95 1006.3
20260831024204 62 158 3.0 10.0 0.00 0.02 0.00 95 1006.2
20260831023203 62 121 2.0 5.0 0.00 0.02 0.00 95 1006.0
20260831022704 62 167 2.0 8.0 0.00 0.02 0.00 95 1006.3
20260831022204 61 171 4.0 9.0 0.00 0.02 0.00 94 1006.4
20260831021204 61 174 2.0 7.0 0.00 0.02 0.00 94 1006.3
20260831020203 61 153 3.0 6.0 0.00 0.02 0.00 94 1006.3
20260831015704 61 171 3.0 6.0 0.00 0.02 0.00 94 1006.4
20260831015203 61 159 2.0 6.0 0.00 0.02 0.00 94 1006.4
20260831014703 61 157 3.0 9.0 0.00 0.02 0.00 94 1006.5
20260831014204 61 152 3.0 7.0 0.00 0.02 0.00 94 1006.4
20260831013205 61 154 3.0 6.0 0.00 0.02 0.00 94 1006.4
20260831010705 62 169 5.0 9.0 0.00 0.04 0.00 94 1006.8
20260831010204 62 169 4.0 8.0 0.00 0.04 0.00 95 1006.8
20260831005705 62 158 4.0 7.0 0.00 0.04 0.00 95 1006.8
20260831004702 62 158 3.0 8.0 0.00 0.04 0.00 95 1006.9
20260831004202 62 150 2.0 7.0 0.00 0.04 0.00 95 1007.0
20260831003703 62 167 3.0 7.0 0.00 0.04 0.00 95 1007.0
20260831003202 62 156 4.0 9.0 0.00 0.04 0.00 95 1007.1
20260831002203 62 161 3.0 7.0 0.00 0.04 0.00 96 1007.0
20260831001702 62 162 3.0 8.0 0.00 0.04 0.00 96 1006.9
20260831001202 62 163 3.0 8.0 0.00 0.04 0.00 96 1006.9
20260831000702 62 147 3.0 6.0 0.00 0.04 0.00 96 1007.0
20260831000203 62 134 3.0 7.0 0.00 0.04 0.00 96 1007.0
20260830235202 62 135 2.0 3.0 0.00 0.04 0.00 96 1007.1
20260830234702 62 133 3.0 6.0 0.00 0.04 0.00 96 1007.2
20260830233202 62 110 2.0 3.0 0.00 0.05 0.00 96 1007.4
20260830232702 62 133 2.0 5.0 0.00 0.05 0.00 96 1007.4
20260830231703 62 112 1.0 5.0 0.00 0.05 0.00 96 1007.5
20260830231202 62 140 2.0 3.0 0.00 0.05 0.00 96 1007.7
20260830230703 62 98 2.0 6.0 0.00 0.05 0.00 96 1007.6
20260830225703 62 111 2.0 3.0 0.00 0.05 0.00 96 1007.8
20260830225202 62 122 2.0 3.0 0.00 0.05 0.00 95 1007.8
20260830224703 62 100 1.0 3.0 0.00 0.05 0.00 96 1007.9
20260830224203 62 104 2.0 3.0 0.00 0.06 0.00 96 1007.9
20260830223203 62 138 2.0 7.0 0.00 0.06 0.00 95 1008.1
20260830222704 62 121 3.0 6.0 0.00 0.06 0.00 95 1008.1
20260830222202 62 125 2.0 3.0 0.00 0.06 0.00 95 1008.2
20260830221702 62 105 2.0 3.0 0.00 0.06 0.00 95 1008.3
20260830221203 62 129 2.0 3.0 0.00 0.06 0.00 95 1008.4
20260830220703 62 101 2.0 3.0 0.00 0.06 0.00 95 1008.4
20260830220203 63 114 2.0 3.0 0.00 0.07 0.00 95 1008.4
20260830215203 63 130 2.0 3.0 0.00 0.07 0.07 95 1008.5
20260830214703 63 133 3.0 5.0 0.00 0.09 0.07 95 1008.6
20260830214202 63 128 1.0 3.0 0.00 0.13 0.07 95 1008.6
20260830213202 63 111 2.0 5.0 0.00 0.18 0.07 95 1008.7
20260830212703 63 121 2.0 3.0 0.00 0.19 0.07 95 1008.8
20260830212203 63 128 1.0 3.0 0.00 0.19 0.07 95 1008.8
20260830211703 63 144 2.0 3.0 0.00 0.19 0.07 95 1008.8
20260830211203 63 151 2.0 3.0 0.00 0.19 0.07 95 1008.8
20260830210703 63 119 2.0 3.0 0.00 0.20 0.07 95 1008.7
20260830210203 63 137 2.0 3.0 0.00 0.20 0.07 95 1008.8
20260830205704 64 142 1.0 3.0 0.00 0.20 0.07 95 1008.9
20260830205203 64 135 2.0 3.0 0.00 0.20 0.07 95 1008.8
20260830204203 64 133 2.0 3.0 0.00 0.20 0.07 94 1008.9
20260830203703 63 167 0.0 0.0 0.00 0.20 0.07 94 1008.9
20260830202703 64 157 0.0 2.0 0.00 0.20 0.07 94 1008.9
20260830202203 64 157 0.0 1.0 0.00 0.20 0.07 94 1008.9
20260830200703 64 157 0.0 2.0 0.00 0.20 0.07 93 1009.0
20260830195703 64 154 1.0 3.0 0.00 0.20 0.07 93 1009.1
20260830195204 64 163 0.0 2.0 0.00 0.21 0.07 93 1009.2
20260830194704 64 163 1.0 3.0 0.00 0.21 0.07 93 1009.2
20260830194203 64 123 0.0 2.0 0.00 0.21 0.07 93 1009.3
20260830193703 64 164 1.0 2.0 0.00 0.21 0.07 93 1009.4
20260830193203 65 165 0.0 0.0 0.00 0.21 0.07 93 1009.4
20260830192203 65 141 0.0 2.0 0.00 0.22 0.07 93 1009.4
20260830191703 65 154 1.0 2.0 0.00 0.22 0.07 92 1009.5
20260830190703 65 171 0.0 3.0 0.00 0.22 0.07 92 1009.5
20260830190203 65 168 1.0 5.0 0.00 0.22 0.07 92 1009.4
20260830185703 66 160 1.0 3.0 0.00 0.22 0.07 92 1009.4
20260830185204 66 183 0.0 1.0 0.00 0.23 0.07 91 1009.4
20260830184703 66 183 0.0 1.0 0.00 0.23 0.07 91 1009.4
20260830183704 66 167 0.0 1.0 0.00 0.24 0.07 91 1009.4
20260830183204 66 167 0.0 3.0 0.00 0.24 0.07 90 1009.4
20260830182704 66 172 1.0 3.0 0.00 0.24 0.07 90 1009.3
20260830180704 67 197 1.0 3.0 0.00 0.24 0.07 89 1009.4
20260830180204 67 178 0.0 1.0 0.00 0.24 0.07 89 1009.4
20260830175204 67 212 2.0 3.0 0.00 0.24 0.07 89 1009.3
20260830174704 67 196 2.0 5.0 0.00 0.24 0.07 89 1009.3
20260830174203 67 244 1.0 6.0 0.00 0.24 0.07 89 1009.3
20260830173705 67 226 4.0 8.0 0.00 0.24 0.07 89 1009.3
20260830173204 67 246 2.0 6.0 0.00 0.24 0.07 89 1009.4
20260830171704 67 219 2.0 6.0 0.00 0.24 0.07 89 1009.4
20260830171204 67 199 2.0 6.0 0.00 0.24 0.07 89 1009.4
20260830170704 67 252 2.0 6.0 0.00 0.24 0.07 89 1009.3
20260830170203 67 226 2.0 5.0 0.00 0.24 0.07 89 1009.3
20260830165704 67 207 1.0 8.0 0.00 0.24 0.07 89 1009.4
20260830164704 67 225 3.0 7.0 0.00 0.24 0.07 89 1009.4
20260830164204 67 213 3.0 7.0 0.00 0.24 0.07 89 1009.4
20260830163704 67 242 3.0 7.0 0.00 0.24 0.07 90 1009.4
20260830163204 67 238 3.0 8.0 0.00 0.24 0.07 89 1009.3
20260830162204 67 237 2.0 9.0 0.00 0.24 0.07 90 1009.3
20260830161704 67 233 2.0 6.0 0.00 0.24 0.07 89 1009.4
20260830161204 68 234 3.0 8.0 0.00 0.24 0.07 89 1009.4
20260830160704 68 231 5.0 12.0 0.00 0.24 0.07 88 1009.4
20260830160205 68 230 6.0 13.0 0.00 0.25 0.07 87 1009.4
20260830155704 69 239 6.0 12.0 0.00 0.26 0.07 87 1009.3
20260830155204 70 242 5.0 12.0 0.00 0.26 0.07 86 1009.2
20260830154703 70 248 5.0 12.0 0.00 0.26 0.07 86 1009.2
20260830154203 70 238 5.0 10.0 0.00 0.26 0.07 85 1009.1
20260830153202 70 242 4.0 9.0 0.00 0.26 0.07 85 1009.2
20260830152703 70 239 3.0 6.0 0.00 0.26 0.07 84 1009.2
20260830152203 70 240 5.0 8.0 0.00 0.26 0.07 85 1009.1
20260830151703 70 267 4.0 10.0 0.00 0.26 0.07 86 1009.1
20260830151203 70 220 3.0 8.0 0.00 0.26 0.07 86 1009.2
20260830150703 70 227 5.0 9.0 0.00 0.26 0.07 86 1009.2
20260830150203 70 234 3.0 9.0 0.00 0.26 0.07 84 1009.1
20260830145703 71 243 6.0 12.0 0.00 0.26 0.07 82 1009.1
20260830145203 71 278 5.0 9.0 0.00 0.26 0.07 80 1009.0
20260830144703 71 238 6.0 14.0 0.00 0.26 0.07 80 1009.0
20260830144203 72 273 6.0 10.0 0.00 0.26 0.07 79 1009.0
20260830143703 72 241 5.0 10.0 0.00 0.26 0.07 78 1009.0
20260830143203 72 230 4.0 12.0 0.00 0.26 0.07 79 1009.0
20260830142703 72 241 4.0 8.0 0.00 0.26 0.07 80 1008.9
20260830142203 72 213 5.0 10.0 0.00 0.26 0.07 79 1008.9
20260830141203 72 269 5.0 8.0 0.00 0.26 0.07 80 1008.8
20260830140703 72 286 5.0 8.0 0.00 0.26 0.07 82 1008.7
20260830140204 72 239 5.0 12.0 0.00 0.26 0.07 81 1008.7
20260830135703 72 246 5.0 8.0 0.00 0.26 0.07 82 1008.7
20260830135203 72 212 5.0 8.0 0.00 0.26 0.07 83 1008.7
20260830134703 71 235 2.0 10.0 0.00 0.26 0.07 83 1008.7
20260830134203 71 233 3.0 9.0 0.00 0.26 0.07 82 1008.6
20260830133703 70 260 2.0 10.0 0.00 0.26 0.07 82 1008.6
20260830133203 70 253 4.0 9.0 0.00 0.26 0.07 81 1008.7
20260830132704 70 240 5.0 10.0 0.00 0.26 0.07 81 1008.7
20260830132203 70 272 6.0 12.0 0.00 0.26 0.07 80 1008.7
20260830131703 71 231 5.0 10.0 0.00 0.26 0.07 81 1008.6
20260830131205 71 273 6.0 9.0 0.00 0.26 0.07 81 1008.6
20260830130703 71 280 4.0 8.0 0.00 0.26 0.07 81 1008.5
20260830130204 71 251 5.0 10.0 0.00 0.26 0.07 81 1008.4
20260830125704 71 249 6.0 10.0 0.00 0.26 0.07 81 1008.4
20260830125204 71 276 6.0 8.0 0.00 0.26 0.07 81 1008.3
20260830124703 71 270 4.0 8.0 0.00 0.26 0.07 81 1008.3
20260830124204 71 252 5.0 7.0 0.00 0.26 0.07 80 1008.2
20260830123703 71 268 6.0 12.0 0.00 0.26 0.07 80 1008.2